User: anonymous   Login
Location: Newark
(44.2003°N, 3.2583°E)
Time: 15:37:20
(UTC+00:00)
Language:

Explorer 11/Cluster Stage 4 - Orbit

View from above orbital plane
View from above orbital plane
View from above satellite
View from above satellite

Ground track
Ground track

The orbit data is extracted from the following two-line orbital elements,

1   107U 61013A   19291.86383639  .00000282  00000-0  20053-4 0  9993
2   107  28.7863 111.4055 0547211  40.0810 323.8853 14.08832288931531
Epoch (UTC): 18 October 2019 20:43:55
Eccentricity: 0.0547211
inclination: 28.7863°
perigee height: 467 km
apogee height: 1259 km
right ascension of ascending node: 111.4055°
argument of perigee: 40.0810°
revolutions per day: 14.08832288
mean anomaly at epoch: 323.8853°
orbit number at epoch: 93153

The dashed part of the orbit path shows where the satellite is in the earth's shadow,  

DLR